Location: Palomar Mountain Lodge
(33.3110°N, 116.8495°W)
Time: 21:06:41
(UTC-07:00)

NOSS 3-2 (C) - Pass Details

Date: 19 May 2017
Orbit: 868 x 1345 km, 63.4° (Epoch: 06 October)

Event Time Altitude Azimuth Distance (km) Brightness Sun altitude
Rises 21:27:02 0° 328° (NNW) 4,077 8.1 -19.0°
Reaches altitude 10° 21:29:41 10° 328° (NNW) 3,170 7.3 -19.4°
Maximum altitude 21:37:28 83° 242° (WSW) 1,309 4.1 -20.6°
Enters shadow 21:42:02 30° 158° (SSE) 2,172 4.8 -21.3°
